WA0FW-1 Weather Reports


time (UTC)temp
C
wind
direction
speed
KPH
gust
KPH
rain 1hr
cm
rain 24hr
cm
rain mn
cm
humidity
%
barometer
mb
20210515054409 11 0 0.0 0.0 0.00 0.05 0.00 70 1019.2
20210515053509 11 0 0.0 0.0 0.00 0.05 0.00 70 1019.2
20210515052609 11 0 0.0 0.0 0.00 0.05 0.00 69 1019.2
20210515051709 11 0 0.0 0.0 0.00 0.05 0.00 69 1019.2
20210515050809 11 0 0.0 0.0 0.00 0.05 0.00 69 1019.2
20210515045909 11 0 0.0 0.0 0.00 0.05 0.05 68 1019.2
20210515045009 11 0 0.0 0.0 0.00 0.05 0.05 68 1019.2
20210515044109 11 0 0.0 0.0 0.00 0.05 0.05 68 1019.2
20210515043208 12 0 0.0 0.0 0.00 0.05 0.05 66 1019.2
20210515042309 12 157 0.0 3.2 0.00 0.05 0.05 66 1019.5
20210515041409 12 0 0.0 0.0 0.00 0.05 0.05 67 1019.8
20210515040509 12 0 0.0 0.0 0.00 0.05 0.05 67 1019.8
20210515035609 12 112 0.0 1.6 0.00 0.05 0.05 66 1019.8
20210515034709 12 112 1.6 1.6 0.00 0.05 0.05 66 1020.2
20210515033809 12 0 0.0 0.0 0.00 0.05 0.05 66 1020.2
20210515032909 12 0 0.0 0.0 0.00 0.05 0.05 65 1020.2
20210515032008 12 0 0.0 0.0 0.00 0.05 0.05 65 1020.2
20210515031109 12 0 0.0 0.0 0.00 0.05 0.05 65 1020.2
20210515030208 12 0 0.0 0.0 0.00 0.05 0.05 65 1020.2
20210515025309 12 0 0.0 0.0 0.00 0.05 0.05 66 1020.2
20210515024408 12 0 0.0 0.0 0.00 0.05 0.05 66 1020.5
20210515023508 12 0 0.0 0.0 0.00 0.05 0.05 67 1020.5
20210515022608 12 0 0.0 0.0 0.00 0.05 0.05 68 1020.5
20210515021708 12 0 0.0 0.0 0.00 0.05 0.05 67 1020.5
20210515020808 12 0 0.0 0.0 0.00 0.05 0.05 69 1020.2
20210515015908 12 0 0.0 0.0 0.00 0.05 0.05 71 1020.2
20210515015008 11 0 0.0 0.0 0.00 0.05 0.05 72 1020.2
20210515014108 11 0 0.0 0.0 0.00 0.05 0.05 73 1020.2
20210515013208 11 0 0.0 0.0 0.00 0.05 0.05 73 1020.5
20210515012308 11 0 0.0 0.0 0.00 0.05 0.05 74 1020.2
20210515011408 11 0 0.0 0.0 0.00 0.05 0.05 75 1020.5
20210515010508 11 0 0.0 0.0 0.00 0.05 0.05 74 1020.2
20210515005608 11 0 0.0 0.0 0.00 0.05 0.05 74 1020.2
20210515004708 11 0 0.0 0.0 0.00 0.05 0.05 75 1020.5
20210515003808 11 0 0.0 0.0 0.00 0.05 0.05 75 1020.5
20210515002908 11 0 0.0 0.0 0.00 0.05 0.05 75 1020.5
20210515002008 11 0 0.0 0.0 0.00 0.05 0.05 75 1020.5
20210515001109 11 0 0.0 0.0 0.00 0.05 0.05 74 1020.5
20210515000208 11 0 0.0 0.0 0.00 0.05 0.05 74 1020.5
20210514235308 11 135 0.0 3.2 0.00 0.05 0.05 70 1020.8
20210514234408 12 135 3.2 3.2 0.00 0.05 0.05 70 1020.8
20210514233508 13 0 0.0 0.0 0.00 0.05 0.05 69 1020.8
20210514232608 13 0 0.0 0.0 0.00 0.05 0.05 68 1020.8
20210514231708 13 0 0.0 0.0 0.00 0.05 0.05 65 1020.8
20210514230808 14 135 0.0 1.6 0.00 0.05 0.05 65 1020.8
20210514225908 14 135 0.0 1.6 0.00 0.05 0.05 65 1020.8
20210514225008 14 0 0.0 0.0 0.00 0.05 0.05 66 1020.8
20210514224108 14 0 0.0 0.0 0.00 0.05 0.05 65 1020.5
20210514223208 14 0 0.0 0.0 0.00 0.05 0.05 64 1020.8
20210514222308 15 0 0.0 0.0 0.00 0.05 0.05 62 1020.8
20210514221408 15 0 0.0 0.0 0.00 0.05 0.05 59 1020.8
20210514220508 15 0 0.0 0.0 0.00 0.05 0.05 61 1020.8
20210514215608 14 0 0.0 0.0 0.00 0.05 0.05 62 1020.8
20210514214708 14 0 0.0 0.0 0.00 0.05 0.05 63 1020.8
20210514213823 14 0 0.0 0.0 0.00 0.05 0.05 64 1020.8
20210514212908 13 0 0.0 0.0 0.00 0.05 0.05 65 1020.8
20210514212008 13 0 0.0 0.0 0.00 0.05 0.05 65 1021.2
20210514211108 14 0 0.0 0.0 0.00 0.05 0.05 65 1020.8
20210514210208 14 0 0.0 0.0 0.00 0.05 0.05 65 1021.2
20210514205307 13 0 0.0 0.0 0.00 0.05 0.05 66 1021.2
20210514204408 13 0 0.0 0.0 0.00 0.05 0.05 65 1021.5
20210514203508 13 135 0.0 1.6 0.00 0.05 0.05 67 1021.9
20210514202608 13 0 0.0 0.0 0.00 0.05 0.05 68 1021.9
20210514201708 13 0 0.0 0.0 0.00 0.05 0.05 70 1021.9
20210514200808 13 0 0.0 0.0 0.00 0.05 0.05 71 1021.9
20210514195907 13 0 0.0 0.0 0.00 0.05 0.05 70 1022.2
20210514195008 13 0 0.0 0.0 0.00 0.05 0.05 70 1022.2
20210514194108 13 0 0.0 0.0 0.05 0.05 0.05 71 1022.2
20210514193207 13 0 0.0 0.0 0.05 0.05 0.05 73 1022.5
20210514192308 13 135 0.0 1.6 0.05 0.05 0.05 72 1022.5
20210514191407 13 135 1.6 1.6 0.05 0.05 0.05 71 1022.5
20210514190508 14 0 0.0 0.0 0.05 0.05 0.05 70 1022.5
20210514185607 14 0 0.0 0.0 0.05 0.05 0.05 70 1022.9
20210514184708 14 0 0.0 0.0 0.00 0.00 0.00 70 1022.9
20210514183808 14 0 0.0 0.0 0.00 0.00 0.00 69 1022.9
20210514182908 14 0 0.0 0.0 0.00 0.00 0.00 67 1022.9
20210514182007 16 0 0.0 0.0 0.00 0.00 0.00 62 1022.9
20210514181108 16 0 0.0 0.0 0.00 0.00 0.00 58 1022.9
20210514180207 16 135 0.0 3.2 0.00 0.00 0.00 54 1022.9
20210514175308 17 156 3.2 3.2 0.00 0.00 0.00 53 1022.5
20210514174408 18 198 3.2 4.8 0.00 0.00 0.00 53 1022.5
20210514173507 17 292 3.2 3.2 0.00 0.00 0.00 53 1022.5
20210514172607 17 0 0.0 0.0 0.00 0.00 0.00 53 1022.5
20210514171707 18 162 0.0 3.2 0.00 0.00 0.00 49 1022.5
20210514170807 18 257 0.0 4.8 0.00 0.00 0.00 48 1022.5
20210514165907 19 301 0.0 3.2 0.00 0.00 0.00 46 1022.5
20210514165007 19 135 0.0 1.6 0.00 0.00 0.00 44 1022.5
20210514164107 18 135 1.6 1.6 0.00 0.00 0.00 45 1022.5
20210514163207 17 0 0.0 0.0 0.00 0.00 0.00 44 1022.5
20210514162307 17 100 0.0 3.2 0.00 0.00 0.00 44 1022.5
20210514161407 17 127 1.6 3.2 0.00 0.00 0.00 44 1022.9
20210514160507 17 142 3.2 3.2 0.00 0.00 0.00 42 1022.5
20210514155607 17 156 3.2 3.2 0.00 0.00 0.00 42 1022.5
20210514154707 17 292 0.0 9.7 0.00 0.00 0.00 43 1022.5
20210514153807 17 292 9.7 9.7 0.00 0.00 0.00 42 1022.5
20210514152907 17 0 0.0 0.0 0.00 0.00 0.00 43 1022.5
20210514152007 17 121 0.0 1.6 0.00 0.00 0.00 43 1022.5
20210514151107 16 58 0.0 3.2 0.00 0.00 0.00 45 1022.5
20210514150207 16 0 0.0 0.0 0.00 0.00 0.00 44 1022.9
20210514145307 16 0 0.0 0.0 0.00 0.00 0.00 45 1022.9
20210514144407 16 0 0.0 0.0 0.00 0.00 0.00 45 1023.2
20210514143507 15 0 0.0 0.0 0.00 0.00 0.00 46 1022.9
20210514142607 15 0 0.0 0.0 0.00 0.00 0.00 46 1023.2
20210514141707 15 0 0.0 0.0 0.00 0.00 0.00 47 1023.2
20210514140807 14 0 0.0 0.0 0.00 0.00 0.00 47 1023.2
20210514135907 14 0 0.0 0.0 0.00 0.00 0.00 47 1023.2
20210514135007 13 0 0.0 0.0 0.00 0.00 0.00 47 1023.2
20210514134107 13 0 0.0 0.0 0.00 0.00 0.00 47 1023.6
20210514133207 13 0 0.0 0.0 0.00 0.00 0.00 47 1023.2
20210514132307 13 0 0.0 0.0 0.00 0.00 0.00 48 1023.2
20210514131407 12 0 0.0 0.0 0.00 0.00 0.00 49 1023.6
20210514130507 12 0 0.0 0.0 0.00 0.00 0.00 49 1023.6
20210514125607 12 0 0.0 0.0 0.00 0.00 0.00 49 1023.6
20210514124707 12 0 0.0 0.0 0.00 0.00 0.00 48 1023.6
20210514123807 12 0 0.0 0.0 0.00 0.00 0.00 49 1023.6
20210514122907 12 0 0.0 0.0 0.00 0.00 0.00 48 1023.6
20210514122007 12 0 0.0 0.0 0.00 0.00 0.00 48 1023.2
20210514121107 12 0 0.0 0.0 0.00 0.00 0.00 48 1023.2
20210514113507 12 0 0.0 0.0 0.00 0.00 0.00 50 1022.9
20210514112607 12 0 0.0 0.0 0.00 0.00 0.00 50 1022.9
20210514111707 12 0 0.0 0.0 0.00 0.00 0.00 50 1022.9
20210514110807 12 0 0.0 0.0 0.00 0.00 0.00 52 1022.9
20210514105006 11 0 0.0 0.0 0.00 0.00 0.00 51 1023.2
20210514104106 11 0 0.0 0.0 0.00 0.00 0.00 51 1023.2
20210514103206 11 0 0.0 0.0 0.00 0.00 0.00 51 1023.2
20210514101406 11 0 0.0 0.0 0.00 0.00 0.00 50 1023.2
20210514100506 11 0 0.0 0.0 0.00 0.00 0.00 49 1023.2
20210514093806 11 0 0.0 0.0 0.00 0.00 0.00 48 1023.2
20210514092906 11 0 0.0 0.0 0.00 0.00 0.00 48 1023.2
20210514081706 12 0 0.0 0.0 0.00 0.00 0.00 45 1023.2
20210514074106 13 0 0.0 0.0 0.00 0.00 0.00 44 1023.2
20210514073206 13 0 0.0 0.0 0.00 0.00 0.00 44 1023.2
20210514070506 13 0 0.0 0.0 0.00 0.00 0.00 44 1023.6
20210514064706 13 0 0.0 0.0 0.00 0.00 0.00 45 1023.6
20210514062006 12 0 0.0 0.0 0.00 0.00 0.00 46 1023.6